Location: Friaudour
(46.0460°N, 1.2873°E)
Time: 20:41:27
(UTC+00:00)

SeaSat 1 - Pass Details

Date: 14 July 2020
Orbit: 744 x 748 km, 108.0° (Epoch: 14 August)

Event Time Altitude Azimuth Distance (km) Brightness Sun altitude
Rises 02:14:32 0° 26° (NNE) 3,201 7.5 -15.9°
Reaches altitude 10° 02:16:48 10° 24° (NNE) 2,273 6.3 -15.6°
Maximum altitude 02:21:44 74° 301° (WNW) 782 2.5 -15.2°
Enters shadow 02:24:48 23° 220° (SW) 1,542 3.5 -14.9°
